Terug naar catalogus

STARLINK-37241

ActiefCommunicatieVLEO
NORAD 68528·PAYLOAD·🇺🇸 United States

Gelanceerd Mar 30, 2026 vanaf Cape Canaveral Space Force Station

Loading…

Volgende Passages (komende 24 uur)

TLE

VersSource: CelesTrak SupGP

Epoch: Sep 14, 2026, 23:02 UTC

1 68528C 26068W   26257.96020833  .00022000  00000+0  65007-3 0  2575
2 68528  53.1597 327.6063 0001178  88.7592  88.2701 15.34375527    13

Volg STARLINK-37241 in realtime met AllMySat

Download on the App Store